When you browse on this site, cookies collect data to enhance your experience and personalize the content and advertising you see.
Visit our Privacy Policy to learn more. By continuing to use the site, you agree to this use of cookies and data.
  • în România
  • Lista ţărilor
  • Pe 7 zile
  • Temperatura apei
  • Hartă satelitară
  • Meteo pe hartă
  • Widget-uri
  • user-avatar
    Intrare

    Meteo pe oră la Mayrhofen

    Astăzi, 20 Iunie, Joi

    Timp Temperatura Precipitaţii Vânt Presiune Umiditate
    00:00 +10°C° 0.1 mm 1 m/s 617 mmHg 83%
    01:00 +9°C° 0 mm 2 m/s 617 mmHg 81%
    02:00 +10°C° 0.2 mm 1 m/s 617 mmHg 83%
    03:00 +9°C° 0.2 mm 1 m/s 616 mmHg 85%
    04:00 +9°C° 0.2 mm 1 m/s 616 mmHg 87%
    05:00 +10°C° 0.2 mm 1 m/s 617 mmHg 84%
    06:00 +11°C° 0.2 mm 0 m/s 618 mmHg 81%
    07:00 +13°C° 0.2 mm 0 m/s 619 mmHg 78%
    08:00 +13°C° 1.1 mm 0 m/s 619 mmHg 77%
    09:00 +15°C° 1.1 mm 1 m/s 619 mmHg 75%
    10:00 +16°C° 1.1 mm 1 m/s 619 mmHg 74%
    11:00 +16°C° 1.4 mm 1 m/s 619 mmHg 74%
    12:00 +16°C° 1.4 mm 1 m/s 619 mmHg 74%
    13:00 +16°C° 1.4 mm 1 m/s 619 mmHg 74%
    14:00 +16°C° 1.3 mm 1 m/s 619 mmHg 76%
    15:00 +15°C° 1.3 mm 1 m/s 619 mmHg 79%
    16:00 +15°C° 1.3 mm 1 m/s 619 mmHg 81%
    17:00 +14°C° 0.8 mm 1 m/s 619 mmHg 85%
    18:00 +14°C° 0.8 mm 1 m/s 619 mmHg 88%
    19:00 +13°C° 0.8 mm 1 m/s 619 mmHg 91%
    20:00 +13°C° 0.6 mm 1 m/s 619 mmHg 92%
    21:00 +12°C° 0.6 mm 1 m/s 619 mmHg 93%
    22:00 +11°C° 0.6 mm 1 m/s 619 mmHg 94%
    23:00 +11°C° 0.5 mm 1 m/s 619 mmHg 95%

    Mâine, 21 Iunie, Vineri

    Timp Temperatura Precipitaţii Vânt Presiune Umiditate
    00:00 +11°C° 0.5 mm 1 m/s 619 mmHg 95%
    01:00 +10°C° 0.5 mm 1 m/s 619 mmHg 96%
    02:00 +10°C° 0.2 mm 1 m/s 619 mmHg 94%
    03:00 +10°C° 0.2 mm 1 m/s 618 mmHg 93%
    04:00 +10°C° 0.2 mm 1 m/s 618 mmHg 91%
    05:00 +11°C° 0.1 mm 1 m/s 619 mmHg 89%
    06:00 +11°C° 0.1 mm 1 m/s 619 mmHg 87%
    07:00 +12°C° 0.1 mm 1 m/s 619 mmHg 84%
    08:00 +12°C° 0.2 mm 1 m/s 620 mmHg 80%
    09:00 +13°C° 0.2 mm 1 m/s 620 mmHg 75%
    10:00 +14°C° 0.2 mm 1 m/s 620 mmHg 71%
    11:00 +15°C° 0.2 mm 1 m/s 621 mmHg 66%
    12:00 +18°C° 0.2 mm 1 m/s 621 mmHg 61%
    13:00 +19°C° 0.2 mm 1 m/s 622 mmHg 57%
    14:00 +18°C° 1 mm 1 m/s 621 mmHg 64%
    15:00 +16°C° 1 mm 1 m/s 621 mmHg 72%
    16:00 +16°C° 1 mm 1 m/s 620 mmHg 80%
    17:00 +14°C° 1.7 mm 1 m/s 620 mmHg 85%
    18:00 +13°C° 1.7 mm 1 m/s 620 mmHg 90%
    19:00 +12°C° 1.7 mm 1 m/s 619 mmHg 96%
    20:00 +12°C° 2.5 mm 1 m/s 619 mmHg 96%
    21:00 +11°C° 2.5 mm 1 m/s 619 mmHg 97%
    22:00 +11°C° 2.5 mm 1 m/s 620 mmHg 98%
    23:00 +11°C° 1 mm 1 m/s 619 mmHg 98%

    Poimâine, 22 Iunie, Sâmbătă

    Timp Temperatura Precipitaţii Vânt Presiune Umiditate
    00:00 +10°C° 1 mm 0 m/s 619 mmHg 98%
    01:00 +9°C° 1 mm 0 m/s 619 mmHg 98%
    02:00 +9°C° 0.3 mm 0 m/s 619 mmHg 97%
    03:00 +10°C° 0.3 mm 1 m/s 618 mmHg 97%
    04:00 +10°C° 0.3 mm 1 m/s 618 mmHg 97%
    05:00 +10°C° 0.1 mm 1 m/s 618 mmHg 95%
    06:00 +11°C° 0.1 mm 1 m/s 619 mmHg 93%
    07:00 +12°C° 0.1 mm 1 m/s 619 mmHg 91%
    08:00 +13°C° 0.7 mm 1 m/s 619 mmHg 87%
    09:00 +14°C° 0.7 mm 1 m/s 620 mmHg 83%
    10:00 +15°C° 0.7 mm 1 m/s 620 mmHg 79%
    11:00 +14°C° 1 mm 1 m/s 620 mmHg 80%
    12:00 +14°C° 1 mm 1 m/s 619 mmHg 81%
    13:00 +14°C° 1 mm 2 m/s 619 mmHg 82%
    14:00 +14°C° 0.7 mm 1 m/s 619 mmHg 81%
    15:00 +14°C° 0.7 mm 1 m/s 619 mmHg 80%
    16:00 +14°C° 0.7 mm 1 m/s 619 mmHg 80%
    17:00 +13°C° 0.8 mm 1 m/s 619 mmHg 84%
    18:00 +13°C° 0.8 mm 1 m/s 619 mmHg 89%
    19:00 +12°C° 0.8 mm 1 m/s 619 mmHg 94%
    20:00 +11°C° 0.2 mm 1 m/s 618 mmHg 95%
    21:00 +10°C° 0.2 mm 1 m/s 618 mmHg 95%
    22:00 +10°C° 0.2 mm 1 m/s 618 mmHg 96%
    23:00 +9°C° 0 mm 1 m/s 618 mmHg 96%

    23 Iunie, Duminică

    Timp Temperatura Precipitaţii Vânt Presiune Umiditate
    00:00 +9°C° 0 mm 1 m/s 618 mmHg 96%
    01:00 +8°C° 0 mm 1 m/s 618 mmHg 96%
    02:00 +8°C° 0 mm 1 m/s 618 mmHg 96%
    03:00 +8°C° 0 mm 1 m/s 618 mmHg 96%
    04:00 +8°C° 0 mm 1 m/s 618 mmHg 97%
    05:00 +9°C° 0 mm 1 m/s 618 mmHg 95%
    06:00 +10°C° 0 mm 1 m/s 619 mmHg 93%
    07:00 +11°C° 0 mm 1 m/s 619 mmHg 92%
    08:00 +13°C° 0 mm 1 m/s 620 mmHg 82%
    09:00 +15°C° 0 mm 1 m/s 621 mmHg 73%
    10:00 +17°C° 0 mm 2 m/s 622 mmHg 64%
    11:00 +17°C° 0 mm 2 m/s 622 mmHg 61%
    12:00 +18°C° 0 mm 2 m/s 622 mmHg 58%
    13:00 +19°C° 0 mm 2 m/s 623 mmHg 55%
    14:00 +19°C° 0 mm 2 m/s 622 mmHg 57%
    15:00 +19°C° 0 mm 2 m/s 622 mmHg 59%
    16:00 +19°C° 0 mm 2 m/s 622 mmHg 61%
    17:00 +18°C° 0 mm 2 m/s 622 mmHg 66%
    18:00 +17°C° 0 mm 2 m/s 622 mmHg 72%
    19:00 +16°C° 0 mm 2 m/s 622 mmHg 78%
    20:00 +14°C° 0 mm 1 m/s 622 mmHg 84%
    21:00 +12°C° 0 mm 1 m/s 621 mmHg 90%
    22:00 +10°C° 0 mm 1 m/s 621 mmHg 95%
    23:00 +9°C° 0 mm 0 m/s 621 mmHg 94%

    24 Iunie, Luni

    Timp Temperatura Precipitaţii Vânt Presiune Umiditate
    00:00 +8°C° 0 mm 0 m/s 621 mmHg 93%
    01:00 +8°C° 0 mm 0 m/s 621 mmHg 92%
    02:00 +8°C° 0 mm 0 m/s 621 mmHg 91%
    03:00 +8°C° 0 mm 0 m/s 621 mmHg 90%
    04:00 +7°C° 0 mm 0 m/s 620 mmHg 89%
    05:00 +10°C° 0 mm 0 m/s 622 mmHg 82%
    06:00 +13°C° 0 mm 0 m/s 623 mmHg 74%
    07:00 +15°C° 0 mm 0 m/s 624 mmHg 67%
    08:00 +19°C° 0 mm 1 m/s 625 mmHg 59%
    09:00 +21°C° 0 mm 1 m/s 625 mmHg 51%
    10:00 +23°C° 0 mm 1 m/s 626 mmHg 43%
    11:00 +24°C° 0 mm 2 m/s 626 mmHg 40%
    12:00 +25°C° 0 mm 2 m/s 627 mmHg 37%
    13:00 +26°C° 0 mm 2 m/s 627 mmHg 33%
    14:00 +25°C° 0 mm 2 m/s 627 mmHg 34%
    15:00 +25°C° 0 mm 2 m/s 627 mmHg 35%
    16:00 +25°C° 0 mm 2 m/s 627 mmHg 36%
    17:00 +24°C° 0 mm 2 m/s 626 mmHg 47%
    18:00 +21°C° 0 mm 2 m/s 626 mmHg 58%
    19:00 +20°C° 0 mm 1 m/s 625 mmHg 69%
    20:00 +18°C° 0 mm 1 m/s 625 mmHg 75%
    21:00 +15°C° 0 mm 1 m/s 624 mmHg 81%
    22:00 +12°C° 0 mm 1 m/s 624 mmHg 88%
    23:00 +12°C° 0 mm 1 m/s 624 mmHg 86%

    25 Iunie, Marţi

    Timp Temperatura Precipitaţii Vânt Presiune Umiditate
    00:00 +12°C° 0 mm 1 m/s 624 mmHg 85%
    01:00 +12°C° 0 mm 1 m/s 623 mmHg 83%
    02:00 +11°C° 0 mm 1 m/s 623 mmHg 82%
    03:00 +10°C° 0 mm 0 m/s 623 mmHg 81%
    04:00 +10°C° 0 mm 0 m/s 623 mmHg 80%
    05:00 +13°C° 0 mm 0 m/s 624 mmHg 72%
    06:00 +15°C° 0 mm 0 m/s 625 mmHg 64%
    07:00 +18°C° 0 mm 0 m/s 627 mmHg 57%
    08:00 +22°C° 0 mm 1 m/s 627 mmHg 49%
    09:00 +24°C° 0 mm 1 m/s 628 mmHg 41%
    10:00 +26°C° 0 mm 1 m/s 629 mmHg 33%
    11:00 +27°C° 0 mm 2 m/s 629 mmHg 30%
    12:00 +28°C° 0 mm 2 m/s 629 mmHg 28%
    13:00 +29°C° 0 mm 2 m/s 629 mmHg 25%
    14:00 +28°C° 0 mm 2 m/s 629 mmHg 27%
    15:00 +28°C° 0 mm 3 m/s 629 mmHg 29%
    16:00 +28°C° 0 mm 3 m/s 629 mmHg 31%
    17:00 +26°C° 0 mm 2 m/s 629 mmHg 42%
    18:00 +24°C° 0 mm 2 m/s 628 mmHg 53%
    19:00 +21°C° 0 mm 2 m/s 628 mmHg 65%
    20:00 +20°C° 0 mm 1 m/s 627 mmHg 72%
    21:00 +18°C° 0 mm 1 m/s 627 mmHg 78%
    22:00 +14°C° 0 mm 1 m/s 626 mmHg 85%
    23:00 +14°C° 0 mm 1 m/s 626 mmHg 82%
    Arată mai mult